User: anonymous   Login
Location: Unspecified
(0.0000°N, 0.0000°E)
Time: 00:06:23
(UTC+00:00)
Language:

RISAT 1 - Orbit

View from above orbital plane
View from above orbital plane
View from above satellite
View from above satellite

Ground track
Ground track

The orbit data is extracted from the following two-line orbital elements,

1 38248U 12017A   16151.34588061  .00000015  00000-0  49351-5 0  9998
2 38248  97.5621 158.2425 0003138 275.9599 207.6927 15.08934295225508
Epoch (UTC): 30 May 2016 08:18:04
Eccentricity: 0.0003138
inclination: 97.5621°
perigee height: 537 km
apogee height: 541 km
right ascension of ascending node: 158.2425°
argument of perigee: 275.9599°
revolutions per day: 15.08934295
mean anomaly at epoch: 207.6927°
orbit number at epoch: 22550

The dashed part of the orbit path shows where the satellite is in the earth's shadow,  

DLR